Location: Blanot
(47.1713°N, 4.2340°E)
Time: 04:08:03
(UTC+00:00)

Meteor 1-19 Rocket - Pass Details

Date: 14 July 2020
Orbit: 811 x 924 km, 81.2° (Epoch: 06 August)

Event Time Altitude Azimuth Distance (km) Brightness Sun altitude
Rises 01:16:24 0° 346° (NNW) 3,451 8.3 -18.4°
Reaches altitude 10° 01:18:53 10° 343° (NNW) 2,493 7.4 -18.3°
Maximum altitude 01:24:26 63° 263° (W) 928 4.2 -17.9°
Enters shadow 01:27:07 30° 193° (SSW) 1,445 4.8 -17.7°
